This is the latest recevied weather packets stored in our database for station/object W6JCZ-13. If no packets are shown the sender has not sent any weather packets the latest 10 day(s).
| Time | Temp. | Humidity | Pressure | Rain* | Wind** | Luminosity | Snow |
|---|---|---|---|---|---|---|---|
| 1777500618 | 27.78° C | 34% | 1013.9 hPa | 0 mm | - | - | - |
| 1777500017 | 27.78° C | 35% | 1014.1 hPa | 0 mm | - | - | - |
| 1777499418 | 27.22° C | 33% | 1014.2 hPa | 0 mm | - | - | - |
| 1777498817 | 27.22° C | 38% | 1014.2 hPa | 0 mm | - | - | - |
| 1777498217 | 26.67° C | 38% | 1014.3 hPa | 0 mm | - | - | - |
| 1777497617 | 26.11° C | 38% | 1014.4 hPa | 0 mm | - | - | - |
| 1777497017 | 26.67° C | 42% | 1014.5 hPa | 0 mm | - | - | - |
| 1777496417 | 26.11° C | 37% | 1014.6 hPa | 0 mm | - | - | - |
| 1777495817 | 26.67° C | 42% | 1014.7 hPa | 0 mm | - | - | - |
| 1777495217 | 25.56° C | 41% | 1014.7 hPa | 0 mm | - | - | - |
| 1777494617 | 25.56° C | 44% | 1014.9 hPa | 0 mm | - | - | - |
| 1777494017 | 25.56° C | 47% | 1014.9 hPa | 0 mm | - | - | - |
| 1777493417 | 26.11° C | 44% | 1015 hPa | 0 mm | - | - | - |
| 1777492817 | 26.11° C | 42% | 1015.1 hPa | 0 mm | - | - | - |
| 1777492217 | 25° C | 51% | 1015.3 hPa | 0 mm | - | - | - |
| 1777491617 | 24.44° C | 46% | 1015.6 hPa | 0 mm | - | - | - |
| 1777491017 | 25.56° C | 45% | 1015.7 hPa | 0 mm | - | - | - |
| 1777490417 | 25° C | 49% | 1015.8 hPa | 0 mm | - | - | - |
| 1777489817 | 24.44° C | 49% | 1015.9 hPa | 0 mm | - | - | - |
| 1777489217 | 23.89° C | 50% | 1016.1 hPa | 0 mm | - | - | - |
| 1777488617 | 23.89° C | 48% | 1016.1 hPa | 0 mm | - | - | - |
| 1777488017 | 23.89° C | 51% | 1016.2 hPa | 0 mm | - | - | - |
| 1777487417 | 23.33° C | 52% | 1016.2 hPa | 0 mm | - | - | - |
| 1777486817 | 22.78° C | 54% | 1016.3 hPa | 0 mm | - | - | - |
| 1777486217 | 22.78° C | 53% | 1016.4 hPa | 0 mm | - | - | - |
* Rain latest hour (hover to see other rain measurements)
** Current wind speed in m/s (hover to see current wind gust speed)